DateTimeUTC,F1_A11,F1_S11,BsB_S11,BsG_S11,BsR_S11,BbsB_S11,BbsG_S11,BbsR_S11,BaB_A11,BaG_A11,BaR_A11,Tu_S11,T_S11,Uu_S11,U_S11,P_S11,T1_A11
2021-07-24T21:00:00Z,00000200,20000000,,,,,,,-000.37,-000.19,-000.24,19.3,25.9,09.9,06.6,0666.9,31.1
2021-07-24T21:01:00Z,00000200,20000000,,,,,,,-000.04,-000.33,0000.30,19.3,25.9,09.7,06.5,0666.9,31.1
2021-07-24T21:02:00Z,00000200,20000000,,,,,,,0000.17,0000.40,-000.08,19.3,25.9,09.7,06.5,0666.9,31.1
2021-07-24T21:03:00Z,00000200,60000000,,,,,,,0000.53,0000.23,-000.09,19.3,25.9,09.7,06.5,0666.9,31.1
2021-07-24T21:04:00Z,00000200,40000000,-000.22,-000.08,0000.05,0000.55,-000.14,0000.25,-000.20,-000.06,0000.46,19.4,25.7,09.8,06.7,0667.8,31.1
2021-07-24T21:05:00Z,00000200,00000000,0000.35,0000.15,0000.29,0000.23,-000.12,0000.14,-000.22,0000.18,-000.21,19.4,25.7,09.8,06.7,0668.0,31.1
2021-07-24T21:06:00Z,00000200,00000000,0000.24,0000.18,0000.11,-000.08,0000.06,0000.10,0000.13,-000.25,-000.04,19.4,25.7,09.8,06.7,0668.0,31.1
2021-07-24T21:07:00Z,00000200,00000000,-000.02,0000.15,-000.08,0000.19,-000.08,-000.25,0000.21,0000.07,0000.22,19.5,25.7,09.9,06.8,0668.0,31.1
2021-07-24T21:08:00Z,00000200,00000000,-000.13,0000.11,0000.39,0000.65,-000.13,0000.53,0000.02,-000.01,-000.18,19.5,25.7,09.8,06.8,0668.0,31.1
2021-07-24T21:09:00Z,00000200,00000000,0000.60,0000.11,0000.33,0000.32,0000.07,0000.32,-000.30,0000.29,0000.05,19.4,25.7,09.8,06.7,0668.1,31.2
2021-07-24T21:10:00Z,00000200,00000000,0000.34,0000.35,0000.08,0000.19,0000.03,0000.20,0000.07,-000.22,-000.26,19.4,25.7,09.8,06.7,0668.0,31.1
2021-07-24T21:11:00Z,00000200,00000000,-000.17,-000.31,0000.20,0000.48,0000.03,0000.31,0000.15,0000.22,0000.02,19.4,25.7,09.8,06.7,0668.0,31.1
2021-07-24T21:12:00Z,00000200,00000000,-000.32,-000.03,0000.26,0000.48,-000.17,0000.16,-000.16,-000.08,0000.12,19.4,25.6,09.8,06.7,0668.0,31.1
2021-07-24T21:13:00Z,00000200,00000000,-000.17,0000.20,-000.08,0000.47,-000.17,0000.21,-000.33,-000.41,0000.21,19.4,25.6,09.9,06.8,0668.0,31.1
2021-07-24T21:14:00Z,00000200,00000000,-000.21,0000.36,0000.12,0000.11,-000.29,0000.05,0000.42,0000.20,0000.02,19.4,25.7,09.9,06.8,0668.0,31.1
2021-07-24T21:15:00Z,00000200,00000000,0000.12,-000.01,0000.24,0000.27,0000.02,-000.04,-000.15,0000.22,-000.22,19.4,25.6,09.9,06.8,0668.1,31.1
2021-07-24T21:16:00Z,00000200,00000000,0000.03,-000.06,0000.10,0000.05,0000.17,0000.01,-000.14,-000.39,-000.25,19.4,25.6,09.7,06.7,0668.1,31.1
2021-07-24T21:17:00Z,00000200,00000000,-000.02,0000.19,0000.35,0000.20,-000.05,0000.06,-000.02,-000.10,0000.41,19.4,25.6,09.7,06.6,0668.1,31.2
2021-07-24T21:18:00Z,00000200,00000000,0000.26,-000.02,0000.03,0000.19,-000.15,0000.12,0000.22,0000.22,-000.11,19.4,25.6,09.7,06.7,0668.1,31.1
2021-07-24T21:19:00Z,00000200,00000000,-000.34,0000.29,0000.50,0000.69,0000.10,0000.06,-000.22,-000.17,0000.16,19.4,25.6,09.6,06.6,0668.1,31.1
2021-07-24T21:20:00Z,00000200,00000000,-000.74,0000.10,0000.08,0000.28,0000.09,0000.46,0000.06,-000.04,-000.07,19.4,25.6,09.7,06.6,0668.1,31.2
2021-07-24T21:21:00Z,00000200,00000000,-000.14,0000.12,0000.49,-000.30,-000.04,0000.15,0000.03,0000.17,-000.48,19.4,25.6,09.7,06.6,0668.1,31.1
2021-07-24T21:22:00Z,00000200,00000000,0000.39,0000.10,0000.12,-000.38,0000.06,0000.04,0000.32,-000.01,0000.33,19.4,25.6,09.6,06.6,0668.2,31.1
2021-07-24T21:23:00Z,00000200,00000000,-000.06,0000.08,0000.30,0000.44,0000.12,0000.08,-000.27,0000.03,-000.04,19.4,25.6,09.6,06.6,0668.2,31.1
2021-07-24T21:24:00Z,00000200,00000000,-000.19,0000.16,-000.02,0000.67,0000.02,0000.24,-000.03,-000.07,0000.03,19.4,25.6,09.6,06.6,0668.2,31.1
2021-07-24T21:25:00Z,00000200,00000000,0000.43,0000.10,0000.24,0000.01,-000.05,0000.13,0000.19,-000.00,-000.07,19.4,25.6,09.6,06.5,0668.2,31.1
2021-07-24T21:26:00Z,00000200,00000000,0000.24,0000.32,0000.33,0000.58,0000.15,0000.08,-000.29,0000.11,-000.09,19.4,25.6,09.6,06.6,0668.2,31.1
2021-07-24T21:27:00Z,00000200,00000000,0000.01,-000.19,-000.00,0000.17,-000.20,-000.13,0000.43,0000.22,0000.36,19.4,25.6,09.5,06.5,0668.2,31.1
2021-07-24T21:28:00Z,00000200,00000000,-000.34,-000.06,0000.39,0000.62,-000.11,0000.10,-000.15,-000.41,-000.35,19.4,25.6,09.4,06.5,0668.2,31.1
2021-07-24T21:29:00Z,00000200,00000000,0000.83,0000.27,0000.10,-000.14,-000.11,-000.01,-000.17,0000.14,0000.36,19.4,25.6,09.6,06.6,0668.2,31.1
2021-07-24T21:30:00Z,00000200,00000000,-000.05,0000.22,0000.12,0000.35,-000.17,-000.08,0000.24,-000.04,0000.03,19.4,25.6,09.5,06.5,0668.2,31.1
2021-07-24T21:31:00Z,00000200,00000000,0000.38,0000.09,-000.10,0000.76,-000.08,-000.22,-000.10,0000.14,-000.18,19.4,25.6,09.5,06.5,0668.2,31.1
2021-07-24T21:32:00Z,00000200,00000000,0000.04,0000.21,0000.26,0000.52,-000.11,0000.40,0000.03,0000.19,-000.13,19.4,25.6,09.6,06.6,0668.2,31.1
2021-07-24T21:33:00Z,00000200,00000000,0000.14,0000.18,0000.53,-000.05,-000.18,-000.04,0000.34,0000.34,0000.21,19.4,25.6,09.7,06.7,0668.2,31.1
2021-07-24T21:34:00Z,00000200,00000000,-000.60,0000.24,0000.00,0000.30,0000.24,-000.05,0000.45,-000.18,0000.40,19.4,25.6,09.8,06.7,0668.2,31.1
2021-07-24T21:35:00Z,00000200,00000000,0000.40,0000.25,0000.32,-000.01,-000.24,0000.25,-000.41,0000.03,0000.15,19.4,25.6,09.8,06.7,0668.2,31.1
2021-07-24T21:36:00Z,00000200,00000000,0000.02,0000.27,0000.02,0000.43,0000.06,-000.19,-000.43,-000.31,-000.48,19.3,25.6,09.6,06.6,0668.2,31.1
2021-07-24T21:37:00Z,00000200,00000000,0000.38,-000.04,0000.19,0000.16,-000.11,0000.22,-000.27,-000.09,-000.12,19.4,25.6,09.5,06.5,0668.2,31.1
2021-07-24T21:38:00Z,00000200,00000000,-000.32,0000.10,0000.23,0000.31,-000.18,0000.41,-000.10,-000.56,-000.42,19.4,25.6,09.1,06.2,0668.1,31.1
2021-07-24T21:39:00Z,00000200,00000000,-000.59,0000.13,0000.07,-000.34,-000.15,-000.00,-000.51,0000.10,0000.01,19.4,25.6,09.0,06.2,0668.1,31.1
2021-07-24T21:40:00Z,00000200,00000000,0000.02,0000.10,0000.43,0000.76,-000.23,0000.18,0000.48,0000.15,0000.02,19.4,25.6,08.9,06.1,0668.2,31.1
2021-07-24T21:41:00Z,00000200,00000000,0000.48,-000.12,0000.07,-000.11,-000.13,0000.06,0000.19,-000.12,0000.04,19.3,25.6,09.0,06.1,0668.2,31.1
2021-07-24T21:42:00Z,00000200,00000000,0000.71,0000.11,0000.34,0000.23,-000.09,0000.11,0000.37,0000.09,-000.19,19.3,25.5,09.0,06.2,0668.2,31.1
2021-07-24T21:43:00Z,00000200,00000000,-000.41,0000.29,0000.17,0000.46,0000.10,-000.15,-000.61,-000.08,0000.23,19.3,25.6,09.1,06.2,0668.2,31.1
2021-07-24T21:44:00Z,00000200,00000000,-000.58,-000.12,0000.77,-000.08,0000.05,0000.20,-000.05,-000.11,-000.30,19.3,25.5,09.1,06.2,0668.2,31.1
2021-07-24T21:45:00Z,00000200,00000000,-000.02,0000.04,0000.43,-000.11,-000.11,-000.22,-000.09,-000.37,0000.50,19.3,25.6,09.0,06.2,0668.3,31.1
2021-07-24T21:46:00Z,00000200,00000000,0000.13,-000.12,0000.13,0000.29,-000.10,0000.24,0000.16,0000.77,-000.34,19.3,25.5,09.0,06.2,0668.3,31.1
2021-07-24T21:47:00Z,00000200,00000000,-000.23,0000.21,0000.30,0000.60,-000.04,0000.41,-000.17,-000.19,0000.01,19.3,25.5,09.1,06.2,0668.3,31.1
2021-07-24T21:48:00Z,00000200,00000000,-000.33,0000.05,-000.08,0000.31,-000.20,-000.43,0000.48,0000.21,0000.34,19.3,25.6,09.1,06.2,0668.3,31.1
2021-07-24T21:49:00Z,00000200,00000000,0000.09,-000.16,0000.66,-000.07,-000.33,0000.44,-000.09,0000.08,-000.19,19.3,25.6,09.1,06.3,0668.3,31.1
2021-07-24T21:50:00Z,00000200,00000000,-000.05,-000.15,0000.15,0000.35,-000.01,0000.36,0000.10,0000.06,0000.21,19.3,25.5,09.2,06.3,0668.3,31.1
2021-07-24T21:51:00Z,00000200,00000000,0000.31,0000.22,0000.07,0000.28,0000.11,-000.08,-000.32,-000.05,0000.09,19.3,25.5,09.1,06.2,0668.3,31.1
2021-07-24T21:52:00Z,00000200,00000000,0000.55,0000.08,0000.24,0000.01,-000.15,-000.00,0000.06,-000.20,-000.59,19.3,25.5,09.1,06.2,0668.3,31.1
2021-07-24T21:53:00Z,00000200,00000000,-000.25,0000.15,0000.03,0000.49,-000.27,0000.08,0000.67,0000.64,0001.01,19.3,25.5,09.1,06.3,0668.3,31.1
2021-07-24T21:54:00Z,00000200,00000000,0000.70,-000.15,0000.35,0000.59,-000.25,0000.39,-000.21,-000.23,-000.41,19.3,25.5,09.3,06.4,0668.3,31.1
2021-07-24T21:55:00Z,00000200,00000000,-000.11,0000.13,0000.15,0000.47,-000.11,-000.11,-000.22,-000.26,-000.22,19.3,25.5,09.2,06.3,0668.3,31.1
2021-07-24T21:56:00Z,00000200,00000000,0000.19,0000.42,-000.03,0000.20,-000.12,0000.05,-000.41,-000.13,-000.06,19.3,25.5,08.9,06.1,0668.3,31.1
2021-07-24T21:57:00Z,00000200,40000000,,,,,,,0000.81,0000.40,0000.30,19.4,25.6,08.0,05.5,0668.4,31.1
2021-07-24T21:58:00Z,00000200,60000000,,,,,,,-000.99,-000.63,-000.53,19.1,25.7,09.1,06.1,0667.4,31.1
2021-07-24T21:59:00Z,00000200,20000000,,,,,,,-000.34,-000.30,-000.55,19.1,25.8,08.9,05.9,0667.3,31.1
